Regional Weather Roundup
Issued by NWS Little Rock, AR

Home | Current Version | Previous Version | Graphics & Text | Print | Product List | Glossary On
Versions: 1 2 3 4 5 6 7 8 9 10 11 12 13 14 15 16 17 18 19 20 21 22 23 24 25 26 27 28 29 30 31 32
000
ASUS44 KLZK 201705
RWRLZK

WEATHER ROUNDUP FOR ARKANSAS
NATIONAL WEATHER SERVICE LITTLE ROCK AR
1200 PM CDT FRI OCT 20 2017

NOTE: "FAIR" INDICATES FEW OR NO CLOUDS BELOW 12,000 FEET WITH NO
SIGNIFICANT WEATHER AND/OR OBSTRUCTIONS TO VISIBILITY.

ARZ001-003-010-029-201800-
NORTHWEST ARKANSAS

CITY           SKY/WX    TMP DP  RH WIND       PRES   REMARKS
FAYETTEVILLE   CLOUDY    69  54  58 S14       30.14F
FORT SMITH     CLOUDY    68  58  70 E6        30.14F
HARRISON       PTSUNNY   70  54  56 SE15      30.17F
BENTONVILLE    MOSUNNY   70  55  59 SE9       30.14F
ROGERS         PTSUNNY   69  55  60 SE9       30.13F
SILOAM SPGS    CLOUDY    69  55  60 S12       30.13F
HIGHFILL       CLOUDY    70  56  61 SE9       30.12F
SPRINGDALE     PTSUNNY   70  54  56 S10       30.14F
$$

ARZ004-005-016-201800-
NORTH CENTRAL ARKANSAS

CITY           SKY/WX    TMP DP  RH WIND       PRES   REMARKS
BATESVILLE     CLOUDY    72  58  61 VRB5      30.21F
FLIPPIN        CLOUDY    66  54  65 SE3       30.18F
MTN HOME       PTSUNNY   67  55  65 S8        30.17F
$$

ARZ040-041-201800-
WEST CENTRAL ARKANSAS

CITY           SKY/WX    TMP DP  RH WIND       PRES   REMARKS
MENA           CLOUDY    66  63  88 CALM      30.18R
$$

ARZ009-017-025-026-028-201800-
NORTHEAST ARKANSAS

CITY           SKY/WX    TMP DP  RH WIND       PRES   REMARKS
JONESBORO      MOSUNNY   71  58  63 SE8       30.21F
NEWPORT        PTSUNNY   72  57  59 S9        30.21F
WALNUT RIDGE   MOSUNNY   68  56  65 S9        30.21F
BLYTHEVILLE    MOSUNNY   72  57  59 S7        30.23F
NW BLYTHEVILLE PTSUNNY   72  57  60 S8        30.23F
$$

ARZ022-023-033-042-044-201800-
CENTRAL ARKANSAS

CITY           SKY/WX    TMP DP  RH WIND       PRES   REMARKS
LITTLE ROCK    PTSUNNY   72  60  66 SE9       30.19F
N LITTLE ROCK    N/A     71  60  67 S6        30.20F
JACKSONVILLE   CLOUDY    74  59  60 S7        30.19F
SEARCY         MOSUNNY   74  61  63 S8        30.21F
HOT SPRINGS    CLOUDY    67  59  75 E7        30.19F
RUSSELLVILLE   CLOUDY    68  56  65 VRB5      30.16F
CLINTON        FAIR      66  57  72 E5        30.19F
$$

ARZ036-201800-
EAST ARKANSAS

CITY           SKY/WX    TMP DP  RH WIND       PRES   REMARKS
WEST MEMPHIS   MOSUNNY   73  57  57 S8        30.21F
$$

ARZ050-053-066-070-073-201800-
SOUTHWEST ARKANSAS

CITY           SKY/WX    TMP DP  RH WIND       PRES   REMARKS
ARKADELPHIA    FAIR      67  60  78 VRB5      30.19F
CAMDEN         CLOUDY    70  57  64 S6        30.18S
TEXARKANA      CLOUDY    72  62  71 S12       30.15F
EL DORADO      CLOUDY    69  63  81 SE9       30.19S
DE QUEEN       CLOUDY    67  61  81 E3        30.15R
$$

ARZ056-057-069-201800-
SOUTHEAST ARKANSAS

CITY           SKY/WX    TMP DP  RH WIND       PRES   REMARKS
PINE BLUFF     CLOUDY    73  58  59 SE7       30.19F
STUTTGART      CLOUDY    72  58  61 S12       30.20F
MONTICELLO     MOSUNNY   74  60  61 SE7       30.20F

$$






USA.gov is the U.S. government's official web portal to all federal, state and local government web resources and services.